"startDT [UTC]","vpos","CH4 [ppm]","stdev(CH4) [ppm]","CO2 [ppm]","stdev(CO2) [ppm]","H2O [ppm]","stdev(H2O)","p_LGR [torr]","T_LGR [C]","mt1_LGR [us]","mt2_LGR [us]","T_ECpre [C]","T_EC1 [C]","T_EC2 [C]","p_inlet [hPa]","p_in [hPa]","p_out [hPa]","T_inlet [C]","RH_inlet [%]","dwpt_inlet [C]","T_vent [C]","RH_vent [%]","dwpt_vent [C]","flow_vent [l min-1]","flow_inlet [l min-1]","dwpt_sample [C]","T_room [C]"
2013-04-23 00:00:00,0.0,1.9120,0.0010,405.48,0.30,277.5,37.4,138.07,29.66,24.66,36.40,0.04,-272.76,-272.76,-42,561,-933,23.6,6.0,-16.2,23.8,6.0,-15.9,5.73,2.42,-23.0,29.1
2013-04-23 00:01:00,0.0,1.9120,0.0011,405.52,0.25,283.5,38.2,138.08,29.66,24.66,36.39,0.04,-272.76,-272.76,-41,561,-933,23.6,5.9,-16.2,23.8,6.1,-15.9,5.73,2.36,-23.0,29.1
2013-04-23 00:02:00,0.0,1.9116,0.0011,405.48,0.32,290.4,39.9,138.08,29.66,24.66,36.40,0.04,-272.76,-272.77,-41,561,-933,23.6,5.9,-16.3,23.8,6.0,-15.9,5.73,2.34,-23.0,29.1
2013-04-23 00:03:00,0.0,1.9120,0.0010,405.50,0.30,274.0,41.3,138.08,29.66,24.66,36.40,0.04,-272.76,-272.76,-41,561,-933,23.6,5.9,-16.3,23.8,6.0,-15.9,5.73,2.40,-23.0,29.1
2013-04-23 00:04:00,0.0,1.9118,0.0008,405.44,0.31,280.8,36.7,138.08,29.66,24.66,36.40,0.04,-272.76,-272.76,-41,561,-933,23.6,5.9,-16.3,23.8,6.0,-16.0,5.73,2.44,-23.0,29.0
2013-04-23 00:05:00,0.0,1.9119,0.0011,405.52,0.33,279.8,45.7,138.07,29.66,24.66,36.40,0.04,-272.76,-272.77,-41,561,-933,23.6,5.8,-16.4,23.8,6.0,-16.0,5.73,2.39,-23.0,29.1
2013-04-23 00:06:00,0.0,1.9122,0.0011,405.43,0.26,283.3,45.0,138.07,29.66,24.66,36.40,0.04,-272.76,-272.76,-41,561,-933,23.6,5.8,-16.4,23.8,5.9,-16.1,5.73,2.34,-23.0,29.0
2013-04-23 00:07:00,0.0,1.9120,0.0011,405.51,0.29,283.6,41.8,138.07,29.66,24.66,36.40,0.04,-272.76,-272.76,-42,561,-933,23.6,5.8,-16.5,23.8,5.9,-16.1,5.73,2.37,-23.0,29.1
2013-04-23 00:08:00,0.0,1.9119,0.0012,405.62,0.29,282.2,42.0,138.07,29.66,24.66,36.39,0.04,-272.76,-272.76,-41,561,-933,23.6,5.8,-16.5,23.8,5.9,-16.2,5.73,2.43,-23.0,29.0
2013-04-23 00:09:00,0.0,1.9121,0.0010,405.54,0.26,281.8,37.9,138.07,29.66,24.66,36.39,0.04,-272.77,-272.76,-41,561,-933,23.6,5.8,-16.5,23.8,5.9,-16.2,5.73,2.43,-23.0,29.1
2013-04-23 00:10:00,0.0,1.9118,0.0009,405.47,0.29,280.1,46.1,138.07,29.66,24.66,36.40,0.04,-272.76,-272.76,-41,561,-933,23.6,5.8,-16.6,23.8,5.9,-16.2,5.73,2.36,-23.0,29.1
2013-04-23 00:11:00,0.0,1.9119,0.0010,405.43,0.32,278.8,39.6,138.07,29.66,24.66,36.40,0.04,-272.76,-272.76,-42,561,-933,23.6,5.7,-16.6,23.8,5.9,-16.2,5.73,2.34,-23.0,29.1
2013-04-23 00:12:00,0.0,1.9117,0.0010,405.44,0.25,276.8,37.9,138.07,29.66,24.66,36.40,0.04,-272.76,-272.76,-42,561,-933,23.6,5.7,-16.6,23.8,5.8,-16.3,5.73,2.40,-23.0,29.1
2013-04-23 00:13:00,0.0,1.9120,0.0011,405.44,0.27,284.5,41.3,138.07,29.67,24.66,36.40,0.04,-272.76,-272.76,-42,561,-933,23.6,5.7,-16.7,23.8,5.8,-16.3,5.73,2.44,-23.0,29.1
2013-04-23 00:14:00,0.0,1.9125,0.0009,405.48,0.32,277.2,35.6,138.07,29.67,24.65,36.40,0.04,-272.76,-272.76,-41,561,-933,23.6,5.7,-16.7,23.8,5.8,-16.4,5.73,2.40,-23.0,29.0
2013-04-23 00:15:00,0.0,1.9115,0.0011,405.60,0.28,282.0,42.2,138.07,29.67,24.66,36.39,0.04,-272.76,-272.76,-41,561,-933,23.6,5.7,-16.6,23.8,5.8,-16.3,5.73,2.34,-23.0,29.0
2013-04-23 00:16:00,0.0,1.9121,0.0010,405.49,0.26,280.5,37.1,138.07,29.67,24.65,36.40,0.04,-272.76,-272.76,-41,561,-933,23.6,5.7,-16.6,23.8,5.8,-16.3,5.73,2.36,-23.0,29.0
2013-04-23 00:17:00,0.0,1.9120,0.0009,405.58,0.31,284.5,37.3,138.07,29.67,24.65,36.39,0.04,-272.76,-272.76,-41,561,-933,23.7,5.7,-16.6,23.8,5.8,-16.3,5.73,2.42,-23.0,29.1
2013-04-23 00:18:00,0.0,1.9118,0.0011,405.53,0.37,278.7,37.2,138.07,29.66,24.66,36.40,0.04,-272.76,-272.77,-42,561,-933,23.6,5.7,-16.6,23.8,5.8,-16.2,5.73,2.43,-23.0,29.0
2013-04-23 00:19:00,0.0,1.9119,0.0010,405.55,0.34,275.0,41.8,138.07,29.66,24.66,36.40,0.04,-272.76,-272.76,-42,561,-933,23.6,5.7,-16.6,23.8,5.8,-16.3,5.73,2.36,-23.0,29.0
2013-04-23 00:20:00,0.0,1.9116,0.0010,405.51,0.26,278.1,46.8,138.07,29.66,24.66,36.40,0.04,-272.76,-272.76,-41,561,-933,23.7,5.8,-16.5,23.8,5.9,-16.2,5.73,2.34,-23.0,29.0
2013-04-23 00:21:00,0.0,1.9120,0.0010,405.42,0.28,271.7,40.9,138.07,29.66,24.66,36.40,0.04,-272.76,-272.76,-41,561,-933,23.6,5.8,-16.5,23.8,5.9,-16.2,5.73,2.40,-23.0,29.0
2013-04-23 00:22:00,0.0,1.9117,0.0011,405.42,0.32,275.4,37.2,138.07,29.66,24.66,36.40,0.04,-272.76,-272.76,-41,561,-933,23.7,5.8,-16.5,23.8,5.9,-16.2,5.73,2.44,-23.0,29.0
2013-04-23 00:23:00,0.0,1.9115,0.0010,405.51,0.33,274.0,39.4,138.07,29.66,24.66,36.40,0.04,-272.76,-272.76,-41,561,-933,23.6,5.8,-16.5,23.8,5.9,-16.2,5.73,2.40,-23.0,29.0
2013-04-23 00:24:00,0.0,1.9120,0.0010,405.54,0.28,277.9,34.2,138.07,29.66,24.66,36.40,0.04,-272.76,-272.76,-41,561,-933,23.6,5.8,-16.5,23.8,5.9,-16.2,5.73,2.34,-23.0,29.0
2013-04-23 00:25:00,0.0,1.9117,0.0010,405.47,0.26,279.6,42.1,138.07,29.66,24.66,36.40,0.04,-272.76,-272.76,-41,561,-933,23.7,5.8,-16.5,23.8,5.9,-16.1,5.73,2.36,-23.0,29.1
2013-04-23 00:26:00,0.0,1.9121,0.0010,405.38,0.28,268.8,32.5,138.07,29.66,24.66,36.41,0.04,-272.76,-272.76,-41,561,-933,23.6,5.8,-16.5,23.8,5.9,-16.2,5.73,2.43,-23.0,29.1
2013-04-23 00:27:00,0.0,1.9122,0.0012,405.44,0.31,275.9,36.0,138.07,29.66,24.65,36.39,0.04,-272.76,-272.76,-41,561,-933,23.7,5.8,-16.4,23.8,5.9,-16.1,5.73,2.43,-23.0,29.0
2013-04-23 00:28:00,0.0,1.9118,0.0012,405.36,0.33,274.6,41.0,138.07,29.66,24.66,36.40,0.04,-272.76,-272.76,-41,561,-933,23.7,5.8,-16.5,23.8,5.9,-16.1,5.73,2.36,-23.0,29.0
2013-04-23 00:29:00,0.0,1.9119,0.0011,405.52,0.27,282.4,41.5,138.07,29.66,24.66,36.40,0.04,-272.77,-272.76,-41,561,-933,23.7,5.8,-16.5,23.8,5.9,-16.1,5.73,2.34,-23.0,29.1
2013-04-23 00:30:00,0.0,1.9119,0.0009,405.38,0.29,271.3,33.4,138.07,29.66,24.66,36.40,0.04,-272.76,-272.77,-42,561,-933,23.7,5.8,-16.5,23.8,5.9,-16.1,5.73,2.40,-23.0,29.1
2013-04-23 00:31:00,0.0,1.9117,0.0009,405.47,0.26,275.4,37.7,138.07,29.66,24.66,36.40,0.04,-272.76,-272.76,-41,561,-933,23.7,5.8,-16.4,23.9,5.9,-16.1,5.73,2.44,-23.0,29.1
2013-04-23 00:32:00,0.0,1.9118,0.0011,405.54,0.31,281.9,36.5,138.07,29.66,24.66,36.40,0.04,-272.76,-272.77,-41,561,-933,23.7,5.8,-16.3,23.9,5.9,-16.0,5.73,2.40,-23.0,29.1
2013-04-23 00:33:00,0.0,1.9120,0.0010,405.50,0.28,278.9,40.3,138.07,29.66,24.66,36.40,0.04,-272.76,-272.76,-41,561,-933,23.7,5.8,-16.3,23.8,6.0,-16.0,5.73,2.34,-23.0,29.0
2013-04-23 00:34:00,0.0,1.9119,0.0009,405.49,0.29,273.7,39.7,138.07,29.66,24.66,36.40,0.04,-272.76,-272.76,-41,561,-933,23.7,5.8,-16.4,23.9,5.9,-16.0,5.73,2.36,-23.0,29.0
2013-04-23 00:35:00,0.0,1.9123,0.0011,405.37,0.32,283.1,35.5,138.07,29.67,24.66,36.41,0.04,-272.76,-272.76,-41,561,-933,23.7,5.8,-16.5,23.9,5.9,-16.2,5.73,2.43,-23.0,29.1
2013-04-23 00:36:00,0.0,1.9119,0.0012,405.44,0.31,275.0,38.6,138.07,29.67,24.66,36.40,0.04,-272.76,-272.76,-42,561,-934,23.7,5.7,-16.6,23.8,5.8,-16.3,5.73,2.43,-23.1,29.0
2013-04-23 00:37:00,0.0,1.9121,0.0010,405.50,0.28,285.6,42.8,138.07,29.67,24.66,36.40,0.04,-272.76,-272.76,-42,561,-933,23.7,5.7,-16.7,23.9,5.8,-16.4,5.73,2.37,-23.0,29.0
2013-04-23 00:38:00,0.0,1.9122,0.0010,405.48,0.26,273.9,34.0,138.07,29.67,24.65,36.40,0.04,-272.76,-272.76,-41,561,-933,23.7,5.7,-16.7,23.9,5.8,-16.4,5.73,2.34,-23.0,29.0
2013-04-23 00:39:00,0.0,1.9117,0.0011,405.54,0.25,277.0,28.8,138.07,29.66,24.66,36.40,0.04,-272.76,-272.76,-41,561,-933,23.7,5.7,-16.6,23.9,5.8,-16.3,5.73,2.39,-23.1,29.0
2013-04-23 00:40:00,0.0,1.9118,0.0009,405.43,0.28,275.5,39.5,138.07,29.66,24.66,36.40,0.04,-272.76,-272.76,-41,561,-934,23.7,5.7,-16.6,23.9,5.8,-16.2,5.73,2.44,-23.1,29.0
2013-04-23 00:41:00,0.0,1.9117,0.0011,405.47,0.28,268.0,38.0,138.07,29.66,24.66,36.40,0.04,-272.76,-272.77,-41,561,-933,23.7,5.7,-16.6,23.9,5.8,-16.3,5.73,2.40,-23.0,29.0
2013-04-23 00:42:00,0.0,1.9118,0.0008,405.41,0.29,268.9,41.9,138.07,29.66,24.66,36.40,0.04,-272.77,-272.77,-41,561,-933,23.7,5.7,-16.6,23.9,5.8,-16.2,5.73,2.35,-23.0,29.0
2013-04-23 00:43:00,0.0,1.9114,0.0010,405.49,0.25,271.0,41.8,138.07,29.66,24.66,36.40,0.04,-272.76,-272.76,-42,561,-934,23.7,5.7,-16.6,23.9,5.8,-16.3,5.73,2.36,-23.1,29.1
2013-04-23 00:44:00,0.0,1.9116,0.0010,405.49,0.29,279.9,41.8,138.07,29.66,24.66,36.40,0.04,-272.76,-272.76,-41,561,-933,23.7,5.7,-16.6,23.9,5.8,-16.3,5.73,2.42,-23.1,29.0
2013-04-23 00:45:00,0.0,1.9116,0.0009,405.40,0.26,274.4,36.2,138.07,29.66,24.66,36.40,0.04,-272.76,-272.76,-41,561,-934,23.7,5.7,-16.7,23.9,5.8,-16.3,5.73,2.43,-23.1,29.0
2013-04-23 00:46:00,0.0,1.9114,0.0008,405.42,0.26,281.3,37.5,138.07,29.66,24.66,36.40,0.04,-272.76,-272.76,-41,561,-933,23.7,5.7,-16.7,23.9,5.8,-16.4,5.73,2.37,-23.1,29.0
2013-04-23 00:47:00,0.0,1.9112,0.0010,405.45,0.28,279.3,38.8,138.07,29.66,24.66,36.40,0.04,-272.76,-272.76,-41,561,-934,23.7,5.6,-16.8,23.9,5.7,-16.5,5.73,2.34,-23.1,29.0
2013-04-23 00:48:00,0.0,1.9115,0.0010,405.47,0.34,276.5,43.7,138.07,29.66,24.65,36.40,0.04,-272.76,-272.76,-41,561,-933,23.7,5.6,-16.8,23.9,5.7,-16.4,5.73,2.40,-23.1,29.0
2013-04-23 00:49:00,0.0,1.9115,0.0011,405.46,0.32,267.9,36.2,138.07,29.66,24.66,36.40,0.04,-272.77,-272.76,-41,561,-934,23.7,5.7,-16.7,23.9,5.7,-16.4,5.73,2.44,-23.1,29.1
2013-04-23 00:50:00,0.0,1.9114,0.0011,405.40,0.30,273.3,32.3,138.07,29.66,24.66,36.40,0.04,-272.76,-272.76,-41,561,-933,23.7,5.6,-16.7,23.9,5.8,-16.4,5.73,2.41,-23.1,29.1
2013-04-23 00:51:00,0.0,1.9117,0.0012,405.44,0.29,269.9,40.5,138.07,29.66,24.65,36.40,0.04,-272.76,-272.76,-41,561,-934,23.7,5.7,-16.7,23.9,5.8,-16.3,5.73,2.34,-23.1,29.1
2013-04-23 00:52:00,0.0,1.9114,0.0010,405.45,0.30,269.6,39.8,138.07,29.66,24.66,36.40,0.04,-272.76,-272.76,-41,561,-933,23.7,5.7,-16.7,23.9,5.8,-16.4,5.73,2.36,-23.1,29.0
2013-04-23 00:53:00,0.0,1.9116,0.0011,405.53,0.30,271.3,30.9,138.07,29.66,24.66,36.40,0.04,-272.76,-272.76,-41,561,-934,23.7,5.6,-16.8,23.9,5.7,-16.4,5.73,2.43,-23.1,29.0
2013-04-23 00:54:00,0.0,1.9115,0.0012,405.47,0.29,268.2,40.2,138.07,29.67,24.66,36.40,0.04,-272.76,-272.76,-41,561,-933,23.7,5.6,-16.8,23.9,5.7,-16.5,5.73,2.43,-23.1,29.0
2013-04-23 00:55:00,0.0,1.9113,0.0010,405.49,0.33,267.5,40.0,138.07,29.67,24.66,36.40,0.04,-272.76,-272.76,-42,561,-934,23.7,5.6,-16.8,23.9,5.7,-16.5,5.73,2.36,-23.1,29.0
2013-04-23 00:56:00,0.0,1.9114,0.0010,405.40,0.27,277.3,33.9,138.07,29.67,24.66,36.40,0.04,-272.76,-272.76,-42,561,-933,23.7,5.6,-16.8,23.9,5.7,-16.5,5.73,2.34,-23.1,29.0
2013-04-23 00:57:00,0.0,1.9115,0.0011,405.49,0.28,271.3,40.9,138.07,29.67,24.65,36.40,0.04,-272.76,-272.76,-41,561,-934,23.7,5.6,-16.9,23.9,5.7,-16.6,5.73,2.39,-23.1,29.0
2013-04-23 00:58:00,0.0,1.9113,0.0010,405.44,0.31,280.1,41.0,138.07,29.66,24.66,36.40,0.04,-272.76,-272.76,-41,561,-934,23.7,5.5,-16.9,23.9,5.7,-16.6,5.73,2.44,-23.1,29.1
2013-04-23 00:59:00,0.0,1.9112,0.0010,405.38,0.30,283.2,34.2,138.07,29.66,24.66,36.41,0.04,-272.76,-272.76,-41,561,-934,23.7,5.5,-16.9,23.9,5.6,-16.6,5.73,2.39,-23.1,29.1
2013-04-23 01:00:00,0.0,1.9112,0.0011,405.39,0.28,260.0,39.8,138.07,29.66,24.66,36.40,0.04,-272.76,-272.76,-42,561,-934,23.7,5.5,-17.0,23.9,5.6,-16.6,5.73,2.34,-23.1,29.1
2013-04-23 01:01:00,0.0,1.9111,0.0013,405.33,0.34,272.1,42.6,138.07,29.66,24.66,36.40,0.04,-272.76,-272.76,-42,561,-934,23.7,5.6,-16.9,23.9,5.6,-16.6,5.73,2.37,-23.1,29.1
2013-04-23 01:02:00,0.0,1.9115,0.0011,405.38,0.31,266.7,37.0,138.07,29.66,24.65,36.40,0.04,-272.76,-272.76,-42,561,-934,23.7,5.5,-17.0,23.9,5.6,-16.7,5.73,2.43,-23.1,29.1
2013-04-23 01:03:00,0.0,1.9111,0.0009,405.39,0.30,274.5,33.8,138.07,29.66,24.66,36.41,0.04,-272.76,-272.76,-41,561,-934,23.7,5.5,-17.0,23.9,5.6,-16.7,5.73,2.43,-23.1,29.1
2013-04-23 01:04:00,0.0,1.9109,0.0010,405.45,0.30,276.7,37.1,138.07,29.66,24.66,36.40,0.04,-272.76,-272.76,-41,561,-933,23.7,5.5,-17.0,23.9,5.6,-16.7,5.73,2.37,-23.1,29.1
2013-04-23 01:05:00,0.0,1.9112,0.0011,405.46,0.31,273.6,44.9,138.07,29.66,24.65,36.40,0.04,-272.76,-272.76,-41,561,-934,23.7,5.5,-17.1,23.9,5.6,-16.7,5.73,2.34,-23.1,29.1
2013-04-23 01:06:00,0.0,1.9110,0.0009,405.44,0.32,275.2,33.7,138.07,29.67,24.66,36.40,0.04,-272.76,-272.77,-42,561,-934,23.7,5.5,-17.1,23.9,5.6,-16.8,5.73,2.40,-23.1,29.1
2013-04-23 01:07:00,0.0,1.9111,0.0009,405.42,0.23,267.5,34.0,138.07,29.67,24.65,36.40,0.04,-272.76,-272.76,-42,561,-934,23.7,5.5,-17.1,23.9,5.6,-16.8,5.73,2.45,-23.1,29.1
2013-04-23 01:08:00,0.0,1.9110,0.0011,405.39,0.29,275.2,43.5,138.07,29.67,24.66,36.40,0.04,-272.76,-272.76,-42,561,-934,23.7,5.5,-17.1,23.9,5.5,-16.8,5.73,2.40,-23.1,29.1
2013-04-23 01:09:00,0.0,1.9110,0.0009,405.34,0.32,269.1,42.2,138.07,29.67,24.66,36.41,0.04,-272.76,-272.77,-41,561,-934,23.7,5.4,-17.2,23.9,5.5,-16.9,5.73,2.34,-23.1,29.1
2013-04-23 01:10:00,0.0,1.9109,0.0010,405.41,0.27,268.9,41.4,138.07,29.67,24.65,36.40,0.04,-272.76,-272.76,-41,561,-934,23.7,5.4,-17.2,23.9,5.5,-16.8,5.73,2.37,-23.1,29.1
2013-04-23 01:11:00,0.0,1.9112,0.0011,405.40,0.31,279.2,35.2,138.07,29.67,24.66,36.40,0.04,-272.76,-272.77,-41,561,-934,23.7,5.4,-17.2,23.9,5.5,-16.9,5.73,2.43,-23.1,29.1
2013-04-23 01:12:00,0.0,1.9109,0.0010,405.40,0.28,271.0,32.3,138.07,29.67,24.66,36.40,0.04,-272.76,-272.77,-42,561,-934,23.7,5.4,-17.1,23.9,5.5,-16.9,5.73,2.43,-23.1,29.1
2013-04-23 01:13:00,0.0,1.9109,0.0009,405.41,0.30,273.5,37.8,138.07,29.67,24.65,36.40,0.04,-272.76,-272.76,-42,561,-934,23.7,5.5,-17.1,23.9,5.5,-16.8,5.73,2.36,-23.1,29.1
2013-04-23 01:14:00,0.0,1.9109,0.0009,405.46,0.27,261.1,35.4,138.07,29.67,24.66,36.40,0.04,-272.76,-272.76,-41,561,-934,23.7,5.5,-17.1,23.9,5.6,-16.7,5.73,2.35,-23.1,29.1
2013-04-23 01:15:00,0.0,1.9108,0.0012,405.40,0.24,268.8,36.3,138.07,29.67,24.66,36.40,0.04,-272.76,-272.76,-41,561,-934,23.7,5.5,-17.0,23.9,5.6,-16.6,5.73,2.41,-23.1,29.1
2013-04-23 01:16:00,0.0,1.9106,0.0010,405.53,0.36,265.0,31.0,138.07,29.67,24.66,36.39,0.04,-272.76,-272.77,-41,561,-934,23.7,5.5,-17.0,23.9,5.6,-16.7,5.73,2.44,-23.1,29.1
2013-04-23 01:17:00,0.0,1.9108,0.0009,405.46,0.32,272.7,37.3,138.07,29.67,24.66,36.40,0.04,-272.76,-272.76,-41,561,-934,23.7,5.5,-17.1,23.9,5.6,-16.7,5.73,2.38,-23.1,29.1
2013-04-23 01:18:00,0.0,1.9111,0.0011,405.46,0.28,269.7,44.4,138.07,29.68,24.66,36.40,0.04,-272.76,-272.76,-42,561,-934,23.7,5.5,-17.1,23.9,5.6,-16.8,5.73,2.34,-23.1,29.1
2013-04-23 01:19:00,0.0,1.9104,0.0010,405.43,0.30,269.9,37.2,138.07,29.68,24.66,36.40,0.04,-272.76,-272.76,-42,561,-934,23.7,5.5,-17.0,23.9,5.6,-16.7,5.73,2.38,-23.1,29.1
2013-04-23 01:20:00,0.0,1.9109,0.0010,405.38,0.28,273.4,36.6,138.07,29.68,24.66,36.40,0.04,-272.76,-272.76,-42,561,-934,23.7,5.5,-16.9,23.9,5.6,-16.6,5.73,2.44,-23.1,29.1
2013-04-23 01:21:00,0.0,1.9108,0.0010,405.39,0.32,272.1,43.5,138.07,29.68,24.66,36.40,0.04,-272.76,-272.76,-41,561,-934,23.7,5.5,-16.9,23.9,5.6,-16.6,5.73,2.41,-23.1,29.1
2013-04-23 01:22:00,0.0,1.9107,0.0009,405.51,0.32,270.9,37.5,138.07,29.68,24.66,36.40,0.04,-272.76,-272.76,-41,561,-934,23.7,5.5,-16.9,23.9,5.6,-16.6,5.73,2.35,-23.1,29.1
2013-04-23 01:23:00,0.0,1.9105,0.0011,405.48,0.26,269.9,46.2,138.07,29.69,24.66,36.40,0.04,-272.76,-272.76,-41,561,-934,23.7,5.5,-16.9,23.9,5.6,-16.6,5.73,2.35,-23.1,29.1
2013-04-23 01:24:00,0.0,1.9106,0.0013,405.46,0.32,268.7,32.0,138.07,29.69,24.66,36.40,0.04,-272.76,-272.76,-42,561,-934,23.7,5.6,-16.9,23.9,5.6,-16.6,5.73,2.42,-23.1,29.1
2013-04-23 01:25:00,0.0,1.9105,0.0011,405.53,0.29,273.0,40.9,138.07,29.69,24.66,36.40,0.04,-272.76,-272.76,-42,561,-934,23.8,5.5,-16.9,23.9,5.6,-16.6,5.73,2.44,-23.1,29.1
2013-04-23 01:26:00,0.0,1.9103,0.0010,405.44,0.26,273.9,38.5,138.07,29.69,24.66,36.40,0.04,-272.76,-272.77,-41,561,-934,23.8,5.5,-16.9,23.9,5.6,-16.6,5.73,2.37,-23.1,29.2
2013-04-23 01:27:00,0.0,1.9107,0.0010,405.51,0.21,269.3,39.9,138.07,29.69,24.66,36.40,0.04,-272.76,-272.76,-41,561,-934,23.8,5.6,-16.9,23.9,5.6,-16.6,5.73,2.34,-23.1,29.2
2013-04-23 01:28:00,0.0,1.9106,0.0009,405.51,0.30,260.5,43.8,138.07,29.69,24.66,36.40,0.04,-272.76,-272.76,-41,561,-934,23.8,5.6,-16.9,23.9,5.7,-16.6,5.73,2.39,-23.1,29.1
2013-04-23 01:29:00,0.0,1.9106,0.0010,405.43,0.32,274.1,38.5,138.07,29.69,24.66,36.40,0.04,-272.76,-272.76,-41,561,-934,23.7,5.5,-17.0,23.9,5.6,-16.7,5.73,2.44,-23.1,29.1
2013-04-23 01:30:00,0.0,1.9104,0.0012,405.47,0.30,270.8,38.6,138.07,29.69,24.66,36.40,0.04,-272.76,-272.76,-42,561,-934,23.7,5.5,-17.0,23.9,5.6,-16.7,5.73,2.41,-23.1,29.2
2013-04-23 01:31:00,0.0,1.9107,0.0010,405.48,0.28,265.7,38.3,138.07,29.69,24.66,36.41,0.04,-272.76,-272.76,-42,561,-934,23.7,5.5,-17.1,23.9,5.6,-16.7,5.73,2.34,-23.1,29.1
2013-04-23 01:32:00,0.0,1.9107,0.0011,405.59,0.32,274.9,36.7,138.07,29.69,24.66,36.39,0.04,-272.76,-272.76,-42,561,-934,23.7,5.5,-17.1,23.9,5.6,-16.7,5.73,2.37,-23.1,29.2
2013-04-23 01:33:00,0.0,1.9107,0.0010,405.42,0.32,271.4,38.0,138.07,29.69,24.66,36.40,0.04,-272.76,-272.76,-41,561,-934,23.7,5.5,-17.1,23.9,5.5,-16.8,5.73,2.44,-23.1,29.1
2013-04-23 01:34:00,0.0,1.9107,0.0010,405.56,0.31,275.9,43.6,138.07,29.69,24.66,36.40,0.04,-272.76,-272.76,-41,561,-934,23.7,5.5,-17.1,23.9,5.5,-16.9,5.73,2.42,-23.1,29.1
2013-04-23 01:35:00,0.0,1.9110,0.0010,405.45,0.33,261.9,41.2,138.07,29.70,24.66,36.40,0.04,-272.76,-272.76,-42,561,-934,23.8,5.5,-17.1,23.9,5.5,-16.8,5.73,2.36,-23.1,29.2
2013-04-23 01:36:00,0.0,1.9107,0.0011,405.52,0.26,267.2,46.7,138.07,29.70,24.66,36.40,0.04,-272.76,-272.77,-42,561,-934,23.8,5.5,-17.1,23.9,5.6,-16.8,5.73,2.35,-23.1,29.2
2013-04-23 01:37:00,0.0,1.9106,0.0013,405.45,0.30,268.8,40.5,138.07,29.70,24.66,36.40,0.04,-272.76,-272.76,-42,561,-934,23.7,5.5,-17.1,23.9,5.5,-16.8,5.73,2.42,-23.1,29.2
2013-04-23 01:38:00,0.0,1.9104,0.0010,405.57,0.30,269.5,42.6,138.07,29.70,24.66,36.39,0.04,-272.76,-272.76,-42,561,-934,23.8,5.4,-17.1,23.9,5.5,-16.9,5.73,2.44,-23.1,29.2
2013-04-23 01:39:00,0.0,1.9106,0.0011,405.48,0.26,260.0,31.7,138.07,29.70,24.66,36.40,0.04,-272.76,-272.76,-41,561,-935,23.8,5.4,-17.1,23.9,5.5,-16.8,5.73,2.38,-23.1,29.2
2013-04-23 01:40:00,0.0,1.9109,0.0009,405.47,0.31,271.7,40.2,138.07,29.70,24.66,36.40,0.04,-272.76,-272.76,-42,561,-934,23.8,5.4,-17.1,23.9,5.5,-16.9,5.73,2.34,-23.1,29.2
2013-04-23 01:41:00,0.0,1.9103,0.0010,405.46,0.29,268.8,40.8,138.07,29.70,24.66,36.40,0.04,-272.76,-272.76,-42,561,-935,23.8,5.5,-17.1,23.9,5.6,-16.8,5.73,2.40,-23.1,29.2
2013-04-23 01:42:00,0.0,1.9105,0.0011,405.44,0.32,262.5,44.7,138.07,29.70,24.66,36.40,0.04,-272.76,-272.76,-42,561,-934,23.8,5.5,-17.0,23.9,5.6,-16.7,5.73,2.45,-23.1,29.2
2013-04-23 01:43:00,0.0,1.9105,0.0010,405.55,0.30,271.9,31.5,138.07,29.70,24.66,36.40,0.04,-272.76,-272.77,-42,561,-935,23.7,5.5,-17.0,23.9,5.6,-16.7,5.73,2.39,-23.1,29.2
2013-04-23 01:44:00,0.0,1.9106,0.0011,405.53,0.29,269.7,44.2,138.07,29.70,24.66,36.40,0.04,-272.76,-272.76,-41,562,-934,23.7,5.6,-16.9,23.9,5.6,-16.6,5.73,2.34,-23.1,29.2
2013-04-23 01:45:00,0.0,1.9105,0.0011,405.46,0.32,257.2,39.7,138.07,29.71,24.66,36.40,0.04,-272.76,-272.76,-41,561,-935,23.7,5.6,-16.8,23.9,5.7,-16.5,5.73,2.38,-23.1,29.2
2013-04-23 01:46:00,0.0,1.9110,0.0011,405.43,0.32,270.9,39.5,138.07,29.71,24.66,36.40,0.04,-272.76,-272.76,-41,561,-934,23.7,5.6,-16.8,23.9,5.7,-16.5,5.73,2.44,-23.1,29.2
2013-04-23 01:47:00,0.0,1.9104,0.0011,405.43,0.31,265.2,34.4,138.07,29.71,24.66,36.40,0.04,-272.76,-272.76,-42,561,-935,23.8,5.6,-16.8,23.9,5.7,-16.5,5.73,2.41,-23.1,29.2
2013-04-23 01:48:00,0.0,1.9109,0.0009,405.46,0.32,271.4,39.5,138.07,29.71,24.65,36.40,0.04,-272.76,-272.76,-42,561,-934,23.7,5.6,-16.8,23.9,5.7,-16.5,5.73,2.34,-23.1,29.2
2013-04-23 01:49:00,0.0,1.9113,0.0011,405.50,0.31,277.9,37.7,138.07,29.71,24.65,36.40,0.04,-272.76,-272.76,-42,561,-935,23.7,5.6,-16.8,23.9,5.7,-16.5,5.73,2.36,-23.1,29.2
2013-04-23 01:50:00,0.0,1.9108,0.0009,405.42,0.26,263.4,42.6,138.07,29.71,24.66,36.40,0.04,-272.76,-272.76,-41,562,-934,23.8,5.6,-16.9,23.9,5.6,-16.6,5.73,2.43,-23.1,29.2
2013-04-23 01:51:00,0.0,1.9114,0.0010,405.54,0.34,260.8,45.1,138.07,29.71,24.65,36.40,0.04,-272.76,-272.76,-41,561,-935,23.8,5.5,-17.0,23.9,5.6,-16.7,5.73,2.43,-23.1,29.2
2013-04-23 01:52:00,0.0,1.9111,0.0012,405.52,0.28,269.2,40.8,138.07,29.72,24.66,36.40,0.04,-272.76,-272.76,-42,562,-934,23.8,5.5,-17.0,23.9,5.6,-16.7,5.73,2.35,-23.1,29.2
2013-04-23 01:53:00,0.0,1.9112,0.0010,405.47,0.28,268.2,40.2,138.07,29.72,24.66,36.40,0.04,-272.76,-272.77,-42,562,-935,23.8,5.5,-17.1,23.9,5.6,-16.8,5.73,2.35,-23.1,29.2
2013-04-23 01:54:00,0.0,1.9112,0.0009,405.46,0.27,271.7,39.0,138.07,29.72,24.65,36.40,0.04,-272.76,-272.76,-42,561,-934,23.8,5.4,-17.1,23.9,5.5,-16.8,5.73,2.43,-23.1,29.2
2013-04-23 01:55:00,0.0,1.9113,0.0010,405.48,0.29,265.4,40.3,138.07,29.72,24.65,36.40,0.04,-272.76,-272.76,-41,562,-935,23.8,5.4,-17.1,23.9,5.5,-16.8,5.73,2.43,-23.1,29.2
2013-04-23 01:56:00,0.0,1.9111,0.0011,405.53,0.30,273.6,43.8,138.07,29.72,24.66,36.40,0.04,-272.76,-272.76,-41,561,-934,23.8,5.5,-17.0,24.0,5.6,-16.7,5.73,2.37,-23.1,29.2
2013-04-23 01:57:00,0.0,1.9108,0.0010,405.57,0.29,265.2,45.3,138.07,29.73,24.66,36.40,0.04,-272.76,-272.76,-42,562,-935,23.8,5.6,-16.8,23.9,5.7,-16.6,5.73,2.34,-23.1,29.2
2013-04-23 01:58:00,0.0,1.9107,0.0011,405.51,0.33,266.1,40.4,138.07,29.72,24.66,36.40,0.04,-272.76,-272.76,-42,562,-934,23.8,5.5,-16.9,23.9,5.6,-16.6,5.73,2.41,-23.1,29.3
2013-04-23 01:59:00,0.0,1.9110,0.0011,405.46,0.33,267.8,39.3,138.07,29.73,24.65,36.40,0.04,-272.76,-272.76,-42,562,-935,23.8,5.5,-16.9,24.0,5.6,-16.6,5.73,2.44,-23.1,29.2
2013-04-23 02:00:00,0.0,1.9105,0.0012,405.54,0.28,271.5,43.2,138.07,29.73,24.66,36.40,0.04,-272.76,-272.76,-42,562,-934,23.8,5.5,-17.0,24.0,5.6,-16.7,5.73,2.38,-23.1,29.2
2013-04-23 02:01:00,0.0,1.9106,0.0008,405.54,0.29,264.5,43.4,138.07,29.73,24.66,36.40,0.04,-272.76,-272.76,-41,562,-935,23.8,5.5,-17.0,24.0,5.6,-16.7,5.73,2.34,-23.1,29.2
2013-04-23 02:02:00,0.0,1.9109,0.0012,405.42,0.25,265.0,37.4,138.07,29.73,24.65,36.41,0.04,-272.76,-272.76,-41,562,-934,23.8,5.5,-17.0,23.9,5.6,-16.7,5.73,2.38,-23.1,29.2
2013-04-23 02:03:00,0.0,1.9106,0.0009,405.61,0.28,265.2,37.4,138.07,29.74,24.66,36.40,0.04,-272.76,-272.77,-42,562,-935,23.8,5.5,-17.1,24.0,5.5,-16.8,5.73,2.44,-23.1,29.2
2013-04-23 02:04:00,0.0,1.9105,0.0010,405.49,0.29,258.9,34.0,138.07,29.74,24.66,36.40,0.04,-272.76,-272.76,-42,562,-935,23.8,5.5,-17.0,24.0,5.6,-16.7,5.73,2.41,-23.1,29.2
2013-04-23 02:05:00,0.0,1.9104,0.0011,405.49,0.32,270.7,41.2,138.07,29.74,24.66,36.40,0.04,-272.76,-272.76,-42,562,-935,23.8,5.5,-17.0,24.0,5.6,-16.7,5.73,2.34,-23.1,29.2
2013-04-23 02:06:00,0.0,1.9107,0.0011,405.51,0.29,260.0,38.1,138.07,29.74,24.66,36.40,0.04,-272.77,-272.76,-41,562,-935,23.8,5.5,-17.0,24.0,5.6,-16.7,5.73,2.37,-23.1,29.2
2013-04-23 02:07:00,0.0,1.9105,0.0010,405.52,0.31,254.7,33.9,138.07,29.74,24.66,36.40,0.04,-272.77,-272.76,-41,562,-935,23.8,5.5,-17.0,24.0,5.6,-16.6,5.73,2.43,-23.1,29.2
2013-04-23 02:08:00,0.0,1.9104,0.0009,405.62,0.29,266.3,40.7,138.07,29.74,24.66,36.40,0.04,-272.76,-272.76,-41,562,-935,23.8,5.5,-17.0,24.0,5.7,-16.5,5.73,2.42,-23.1,29.3
2013-04-23 02:09:00,0.0,1.9105,0.0010,405.47,0.33,268.1,43.6,138.07,29.75,24.66,36.40,0.04,-272.76,-272.76,-42,562,-935,23.8,5.5,-17.0,24.0,5.6,-16.6,5.73,2.36,-23.1,29.3
2013-04-23 02:10:00,0.0,1.9106,0.0009,405.46,0.28,269.6,40.8,138.07,29.75,24.66,36.40,0.04,-272.76,-272.76,-42,562,-935,23.8,5.5,-17.0,24.0,5.6,-16.6,5.73,2.35,-23.1,29.3
2013-04-23 02:11:00,0.0,1.9106,0.0011,405.51,0.29,273.4,38.8,138.07,29.75,24.66,36.40,0.04,-272.76,-272.76,-42,562,-934,23.8,5.5,-17.0,24.0,5.6,-16.6,5.73,2.42,-23.1,29.3
2013-04-23 02:12:00,0.0,1.9105,0.0011,405.52,0.31,266.7,37.7,138.07,29.75,24.66,36.40,0.04,-272.76,-272.76,-41,562,-935,23.8,5.5,-16.9,24.0,5.6,-16.6,5.73,2.44,-23.1,29.3
2013-04-23 02:13:00,0.0,1.9105,0.0011,405.57,0.29,263.2,40.6,138.07,29.76,24.65,36.40,0.04,-272.76,-272.76,-41,562,-934,23.8,5.6,-16.9,24.0,5.7,-16.5,5.73,2.37,-23.1,29.3
2013-04-23 02:14:00,0.0,1.9107,0.0010,405.52,0.32,253.1,41.5,138.07,29.76,24.65,36.41,0.04,-272.76,-272.76,-42,562,-935,23.8,5.6,-16.8,24.0,5.7,-16.5,5.73,2.34,-23.1,29.3
2013-04-23 02:15:00,0.0,1.9104,0.0012,405.51,0.28,258.7,34.7,138.07,29.76,24.66,36.41,0.04,-272.76,-272.76,-42,562,-934,23.8,5.5,-16.9,24.0,5.6,-16.6,5.73,2.40,-23.1,29.3
2013-04-23 02:16:00,0.0,1.9105,0.0011,405.52,0.28,260.6,32.8,138.07,29.76,24.66,36.40,0.04,-272.76,-272.77,-42,562,-935,23.8,5.5,-17.0,24.0,5.6,-16.6,5.73,2.44,-23.1,29.2